Printer-friendly version

IAU Minor Planet Center

Minor Planet Center

MPEC 2006-T10 : 2006 SA218

The following Minor Planet Electronic Circular may be linked-to from your own Web pages, but must not otherwise be redistributed electronically.


Read MPEC 2006-T09 Read MPEC 2006-T11


M.P.E.C. 2006-T10                                Issued 2006 Oct. 2, 13:13 UT

     The Minor Planet Electronic Circulars contain information on unusual
         minor planets and routine data on comets.  They are published
   on behalf of Commission 20 of the International Astronomical Union by the
          Minor Planet Center, Smithsonian Astrophysical Observatory,
                          Cambridge, MA 02138, U.S.A.

             Prepared using the Tamkin Foundation Computer Network

                              MPC@CFA.HARVARD.EDU
          URL http://cfa-www.harvard.edu/iau/mpc.html  ISSN 1523-6714

                                  2006 SA218

Observations:
     K06SL8A* C2006 09 30.73259 05 51 16.66 -19 42 59.9          18.8 V ET010E12
     K06SL8A  C2006 09 30.74360 05 51 19.04 -19 43 15.7          18.5 V ET010E12
     K06SL8A  C2006 09 30.75506 05 51 21.52 -19 43 30.3          18.2 V ET010E12
     K06SL8A  C2006 09 30.76646 05 51 23.97 -19 43 49.5          18.7 V ET010E12
     K06SL8A  C2006 09 30.78366 05 51 27.62 -19 44 13.2                 ET010E12
     K06SL8A  C2006 09 30.78431 05 51 27.82 -19 44 14.8                 ET010E12
     K06SL8A  C2006 09 30.78494 05 51 27.96 -19 44 15.8                 ET010E12
     K06SL8A  C2006 10 01.43889 05 53 53.32 -20 00 11.4          19.0 R ET010734
     K06SL8A  C2006 10 01.44184 05 53 53.95 -20 00 15.7          18.9 R ET010734
     K06SL8A  C2006 10 01.44480 05 53 54.63 -20 00 20.4          19.5 R ET010734
     K06SL8A  C2006 10 01.44776 05 53 55.23 -20 00 23.7          18.3 R ET010734
     K06SL8A  C2006 10 01.45679 05 53 57.48 -20 00 35.5          18.9 V ET010G96
     K06SL8A  C2006 10 01.46508 05 53 59.24 -20 00 47.3          18.6 V ET010G96
     K06SL8A  C2006 10 01.47334 05 54 01.04 -20 00 58.4          18.6 V ET010G96
     K06SL8A  C2006 10 01.70740 05 54 53.16 -20 06 13.2          19.1 V ET010E12
     K06SL8A  C2006 10 01.70781 05 54 53.20 -20 06 14.0          18.9 V ET010E12
     K06SL8A  C2006 10 01.70822 05 54 53.33 -20 06 14.3          19.3 V ET010E12
     K06SL8A  C2006 10 01.78290 05 55 09.33 -20 08 02.3          18.9 V ET010E12
     K06SL8A  C2006 10 01.78354 05 55 09.54 -20 08 02.8          18.5 V ET010E12
     K06SL8A  C2006 10 02.11900 05 56 23.70 -20 16 18.1          18.5 R ET010461
     K06SL8A  C2006 10 02.12142 05 56 24.21 -20 16 21.8                 ET010461
     K06SL8A  C2006 10 02.12384 05 56 24.70 -20 16 25.1                 ET010461
     K06SL8A  C2006 10 02.12627 05 56 25.25 -20 16 28.7                 ET010461
     K06SL8A  C2006 10 02.18148 05 56 37.49 -20 17 47.1                 ET010J95
     K06SL8A  C2006 10 02.18339 05 56 37.94 -20 17 50.5                 ET010J95
     K06SL8A  C2006 10 02.18530 05 56 38.30 -20 17 52.2          19.0 R ET010J95
     K06SL8A  C2006 10 02.44030 05 57 34.82 -20 23 48.2          18.7 R ET010854
     K06SL8A  C2006 10 02.44605 05 57 36.05 -20 23 55.9          18.7 R ET010854
     K06SL8A  C2006 10 02.46426 05 57 39.93 -20 24 22.6          18.9 R ET010854

Observer details:
461 Szeged University, Piszkesteto Stn. (Konkoly).  Observer K. Sarneczky.
    0.60-m Schmidt + CCD.
734 Farpoint Observatory.  Observer G. Hug.  Measurer D. Tibbets.  0.7-m
    reflector + CCD.
854 Sabino Canyon Observatory, Tucson.  Observer J. E. McGaha.  0.36-m f/10.0
    Schmidt-Cassegrain + CCD.
E12 Siding Spring Survey.  Observer R. H. McNaught.  Measurers E. C. Beshore,
    E. J. Christensen, G. J. Garradd, A. R. Gibbs, A. D. Grauer, R. E. Hill,
    R. A. Kowalski, S. M. Larson, R. H. McNaught.  0.5-m Uppsala Schmidt + CCD.
G96 Mt. Lemmon Survey.  Observer R. A. Kowalski.  Measurers E. C. Beshore,
    E. J. Christensen, G. J. Garradd, A. R. Gibbs, A. D. Grauer, R. E. Hill,
    R. A. Kowalski, S. M. Larson, R. H. McNaught.  1.5-m reflector + CCD.
J95 Great Shefford.  Observer P. Birtwhistle.  0.40-m f/6.0 Schmidt-Cassegrain
    + CCD.

Orbital elements:
2006 SA218                                               Earth MOID = 0.2836 AU
Epoch 2006 Sept. 22.0 TT = JDT 2454000.5                MPC
M 333.24686              (2000.0)            P               Q
n   0.55058305     Peri.  278.03358     +0.43287081     -0.88237866
a   1.4743055      Node   144.41214     +0.90016867     +0.41217252
e   0.2405099      Incl.   18.48117     +0.04815834     +0.22698395
P   1.79           H   18.1           G   0.15           U   9
Residuals in seconds of arc
060930 E12  0.3+  0.3-    061001 734  0.4-  0.2+    061002 461  0.4-  0.0
060930 E12  0.3+  0.1-    061001 G96  0.2-  0.2-    061002 461  0.8-  0.2+
060930 E12  0.3+  1.9+    061001 G96  0.5-  0.1-    061002 461  0.4-  0.0
060930 E12  0.2+  0.8-    061001 G96  0.2-  0.7+    061002 J95  0.3+  0.0
060930 E12  0.7-  0.4+    061001 E12  0.0   0.3+    061002 J95  0.9+  0.7-
060930 E12  0.2+  0.3-    061001 E12  0.7-  0.0     061002 J95  0.1+  0.3+
060930 E12  0.3+  0.4-    061001 E12  0.1-  0.3+    061002 854  0.8-  0.4+
061001 734  0.4-  0.2-    061001 E12  0.6-  0.7-    061002 854  0.8-  0.9+
061001 734  0.5-  0.2-    061001 E12  0.4+  0.2-    061002 854  1.0-  0.1+
061001 734  0.1+  0.7-    061002 461  0.2-  0.3+

Ephemeris:
2006 SA218               a,e,i = 1.47, 0.24, 18                  q = 1.1197
Date    TT    R. A. (2000) Decl.     Delta      r     Elong.  Phase     V
2006 10 02    05 55.95   -20 13.2    0.475    1.160    97.1    58.9    18.9
2006 10 12    06 31.49   -23 52.3    0.470    1.142    95.3    60.5    18.9
2006 10 22    07 04.15   -26 54.0    0.468    1.129    94.1    61.5    18.9
2006 11 01    07 33.64   -29 15.1    0.464    1.122    93.6    62.0    18.9
2006 11 11    07 59.94   -30 54.9    0.457    1.120    94.1    61.9    18.8
2006 11 21    08 22.92   -31 53.4    0.445    1.123    95.8    61.0    18.8
2006 12 01    08 42.31   -32 05.7    0.427    1.133    98.7    59.4    18.7
2006 12 11    08 57.86   -31 22.6    0.405    1.147   103.2    56.7    18.5
2006 12 21    09 08.95   -29 28.3    0.378    1.166   109.5    52.7    18.3
2006 12 31    09 15.03   -25 55.3    0.350    1.189   118.2    46.8    18.0
2007 01 10    09 15.93   -20 12.6    0.324    1.216   129.6    38.6    17.6
2007 01 20    09 12.06   -11 59.5    0.307    1.246   143.9    27.7    17.2
2007 01 30    09 05.17   -01 44.3    0.307    1.277   160.0    15.3    16.9
2007 02 09    08 58.02   +08 50.4    0.328    1.311   170.4     7.2    16.8
2007 02 19    08 53.23   +17 50.4    0.372    1.345   160.9    13.9    17.4
2007 03 01    08 52.66   +24 22.3    0.435    1.380   148.3    22.2    18.1
2007 03 11    08 56.73   +28 35.4    0.514    1.415   137.5    28.3    18.7
2007 03 21    09 04.98   +31 00.9    0.604    1.450   128.3    32.6    19.2
2007 03 31    09 16.63   +32 08.0    0.702    1.484   120.6    35.4    19.6
2007 04 10    09 30.77   +32 18.9    0.806    1.518   113.8    37.1    20.0
2007 04 20    09 46.62   +31 48.7    0.914    1.550   107.7    38.1    20.4
2007 04 30    10 03.67   +30 47.7    1.024    1.581   102.2    38.5    20.7
2007 05 10    10 21.42   +29 23.6    1.137    1.610    97.0    38.5    21.0
2007 05 20    10 39.61   +27 41.7    1.250    1.638    92.2    38.1    21.2
2007 05 30    10 58.06   +25 45.9    1.364    1.665    87.6    37.5    21.4
2007 06 09    11 16.62   +23 39.7    1.476    1.689    83.2    36.6    21.6
2007 06 19    11 35.25   +21 25.3    1.588    1.712    78.9    35.6    21.7
2007 06 29    11 53.94   +19 05.1    1.697    1.733    74.7    34.5    21.9
2007 07 09    12 12.66   +16 40.9    1.803    1.752    70.6    33.2    22.0

Timothy B. Spahr             (C) Copyright 2006 MPC           M.P.E.C. 2006-T10

Read MPEC 2006-T09 Read MPEC 2006-T11


Our Web policy. Index to the CBAT/MPC/ICQ pages.


Valid HTML 4.01!